Regional Weather Roundup
Issued by NWS

Home | Current Version | Previous Version | Graphics & Text | Print | Product List | Glossary On
Versions: 1 2 3 4 5 6 7 8 9 10 11 12 13 14 15 16 17 18 19 20 21 22 23 24 25 26 27 28 29 30 31 32 33 34 35 36 37 38 39 40 41 42 43 44 45 46 47 48 49 50
000
ASUS43 KLSX 261507
RWRMO

WEATHER SUMMARY FOR MISSOURI
NATIONAL WEATHER SERVICE SPRINGFIELD MO
900 AM CST WED NOV 26 2014

NOTE: "FAIR" INDICATES FEW OR NO CLOUDS BELOW 12,000 FEET WITH NO
       SIGNIFICANT WEATHER AND/OR OBSTRUCTIONS TO VISIBILITY.
       CURRENT SKY AND/OR WEATHER CONDITIONS ARE NOT AVAILABLE FOR
       CHILLICOTHE AND FARMINGTON.

MOZ001>031-035>038-043-044-053-054-261600-
...NORTHERN AND WESTERN MISSOURI...

CITY           SKY/WX    TMP DP  RH WIND       PRES   REMARKS
KANSAS CTY INT CLOUDY    39  33  79 W12       29.95R
KANSAS C DTWN  CLOUDY    41  33  73 NW9       29.96R
LEE`S SUMMIT   MOSUNNY   39  34  82 NW8       29.96R
ST JOSEPH      CLOUDY    40  32  73 W18G26    29.95R
CHILLICOTHE      N/A     36  33  89 SW7       29.92S
KIRKSVILLE     LGT SNOW  30  29  96 SE10      29.92F FOG     WCI  21

$$
MOZ066>068-077>081-088>096-101>105-261600-
...SOUTHWEST MISSOURI...

CITY           SKY/WX    TMP DP  RH WIND       PRES   REMARKS
SPRINGFIELD    FLURRIES  34  31  88 W7        30.00R WCI  28
JOPLIN         PTSUNNY   41  28  60 W6        30.03R

$$
MOZ032>034-039>042-045>050-055>058-069>072-261600-
...CENTRAL MISSOURI...

CITY           SKY/WX    TMP DP  RH WIND       PRES   REMARKS
COLUMBIA       LGT SNOW  32  30  92 S5        29.96S VSB 1   WCI  27
ROLLA          LGT SNOW  34  24  67 SW12      29.97R WCI  25
SEDALIA        PTSUNNY   35  31  85 SW12      29.95S WCI  27
WHITEMAN AFB   MOSUNNY   37  34  89 W10       29.95R WCI  29
WARRENSBURG    MOSUNNY   36  32  87 SW9       29.96S WCI  29
OSAGE BEACH    CLOUDY    34  30  86 CALM      29.99S

$$
MOZ051-052-059>065-261600-
...EAST CENTRAL MISSOURI...

CITY           SKY/WX    TMP DP  RH WIND       PRES   REMARKS
ST LOUIS INTL  CLOUDY    33  26  75 SE15      30.05F WCI  23
SPIRIT OF STL  CLOUDY    31  26  82 E6        30.02F WCI  25
ST CHARLES     CLOUDY    30  28  92 E12       30.05F WCI  20

$$
MOZ072>076-082>087-097>100-106>115-261600-
...SOUTH CENTRAL AND SOUTHEAST MISSOURI...

CITY           SKY/WX    TMP DP  RH WIND       PRES   REMARKS
CAPE GIRARDEAU PTSUNNY   35  31  85 E5        30.12R
FARMINGTON     CLOUDY    30  28  93 E8        30.04F WCI  23
POPLAR BLUFF   CLOUDY    35  29  78 CALM      30.10R
WEST PLAINS    CLOUDY    32  23  69 E6        30.01R WCI  26

$$



USA.gov is the U.S. government's official web portal to all federal, state and local government web resources and services.